Location: Kopernik Observatory
(42.0014°N, 76.0372°W)
Time: 00:34:44
(UTC-04:00)

Daily predictions for brighter satellites

Satellite Brightness Start Highest point End
(mag) Time Altitude Azimuth Time Altitude Azimuth Time Altitude Azimuth
Cosmos 1953 3.9 00:06:57 10° NNW 00:10:05 26° W 00:10:05 26° W
Cosmos 1140 Rocket 3.9 00:09:16 47° WSW 00:10:27 59° WNW 00:15:40 10° NNE
Meteor 1-16 Rocket 4.3 00:08:21 10° N 00:13:54 62° ENE 00:14:35 57° ESE
COSMOS 2487 4.1 00:16:19 33° NNE 00:16:19 33° NNE 00:18:26 10° NNE
COSMOS 2406 3.6 00:21:08 41° WSW 00:22:50 58° WNW 00:28:31 10° NNE
Cosmos 1340 3.7 00:24:54 44° NNW 00:24:54 44° NNW 00:27:43 10° N
Cosmos 2026 Rocket 3.8 00:26:10 67° SSE 00:27:01 83° E 00:33:07 10° N
Cosmos 2195 Rocket 4.4 00:26:26 64° SSW 00:27:30 87° W 00:33:47 10° N
ATLAS 3B R/B 4.3 00:22:12 10° WSW 00:29:10 36° NW 00:35:58 10° NNE
Cosmos 1627 Rocket 4.3 00:29:20 64° SSW 00:30:20 83° W 00:36:30 10° N
Landsat 5 4.1 00:31:28 48° NNE 00:31:28 48° NNE 00:34:35 10° N
H-2A R/B 3.2 00:26:55 10° NNE 00:29:41 46° NNE 00:29:41 46° NNE
NOSS 3-2 (A) 3.5 00:31:53 60° SE 00:32:09 60° ESE 00:38:38 10° NE
Cosmos 2221 2.9 00:27:59 10° N 00:31:38 63° NNW 00:31:38 63° NNW
Cosmos 1076 Rocket 4.1 00:34:29 50° NE 00:34:29 50° NE 00:37:48 10° NNE
Cosmos 2228 Rocket 4.0 00:32:09 10° N 00:35:54 40° ENE 00:35:54 40° ENE
Lacrosse 4 Rocket 4.3 00:37:36 10° WNW 00:39:15 12° NW 00:40:54 10° NNW
Okean 3 Rocket 4.4 00:40:01 44° WNW 00:40:01 44° WNW 00:44:02 10° N
Cosmos 1607 4.2 00:40:07 41° WSW 00:42:17 64° NW 00:48:29 10° NNE
Cosmos 1707 4.0 00:46:39 37° NW 00:46:39 37° NW 00:49:39 10° N
Cosmos 2082 Rocket 3.5 00:47:00 26° E 00:47:00 26° E 00:51:12 10° NE
ISS -0.3 00:44:28 10° NW 00:46:42 17° N 00:48:56 10° NNE
CZ-4B R/B 3.1 00:50:52 34° NNW 00:50:52 34° NNW 00:53:08 10° NNW
Cosmos 1763 Rocket 4.4 00:48:29 10° N 00:53:29 40° ENE 00:54:30 36° E
Cosmos 1833 Rocket 4.1 00:58:23 25° E 00:58:23 25° E 01:02:38 10° NE
Meteor 1-24 Rocket 3.8 00:58:29 63° SW 00:59:18 72° W 01:05:16 10° N
ALOS 2 3.5 01:02:49 40° WNW 01:02:49 40° WNW 01:06:13 10° NNW
Cosmos 1867 4.1 01:04:21 47° E 01:04:21 47° E 01:09:04 10° NE
Cosmos 1943 Rocket 4.1 01:02:06 10° WNW 01:05:02 15° W 01:05:02 15° W
Cosmos 1553 Rocket 4.0 01:04:39 10° NNW 01:10:57 70° W 01:11:52 61° SW
Cosmos 1408 Rocket 4.4 01:14:04 42° WNW 01:14:04 42° WNW 01:17:58 10° N
CZ-2C R/B 3.8 01:14:18 42° ESE 01:15:28 48° ENE 01:20:55 10° N
Cosmos 1674 4.5 01:22:02 26° ENE 01:22:02 26° ENE 01:24:19 10° NNE
Cosmos 1503 Rocket 4.4 01:21:31 53° ESE 01:21:31 53° ESE 01:26:38 10° NNE
Lacrosse 5 3.7 01:18:16 10° NNW 01:22:43 29° NNE 01:27:07 10° E
Cosmos 1656 4.3 01:20:00 10° NNW 01:25:35 51° ENE 01:27:15 39° ESE
Cosmos 1066 4.5 01:25:22 79° SSE 01:25:41 85° E 01:31:10 10° N
Cosmos 2315 Rocket 4.3 01:20:36 10° N 01:26:51 58° E 01:28:24 46° SE
Meteor 2-20 Rocket 4.4 01:26:41 63° SSE 01:27:36 73° E 01:33:45 10° NNE
NOSS 3-3 (A) 4.4 01:22:01 10° NW 01:29:25 68° WSW 01:31:11 53° S
NOSS 3-3 (C) 4.4 01:22:08 10° NW 01:29:32 68° WSW 01:31:20 53° S
Cosmos 2344 3.6 01:27:46 51° S 01:29:51 71° ESE 01:38:30 10° NE
Meteor 1-21 Rocket 4.1 01:30:26 74° S 01:31:00 85° E 01:36:43 10° N
Cosmos 724 4.4 01:31:19 54° ESE 01:31:26 54° ESE 01:37:08 10° NE
Cosmos 841 Rocket 3.4 01:26:48 10° NNW 01:32:05 77° ENE 01:32:26 73° ESE
Meteor 2-2 Rocket 4.2 01:28:14 10° N 01:33:58 79° E 01:34:44 67° SE
CZ-2C R/B 2.5 01:28:41 10° NNE 01:34:16 85° WNW 01:34:45 75° SW
NOSS 3-2 (C) 3.8 01:35:49 45° WSW 01:37:42 64° NW 01:44:23 10° NNE
CENTAUR R/B 3.3 01:37:24 34° ESE 01:37:53 35° ESE 01:43:50 10° NE
Cosmos 1743 Rocket 4.3 01:40:07 46° WNW 01:40:07 46° WNW 01:43:59 10° N
Cosmos 2266 Rocket 4.0 01:38:31 60° SSW 01:39:42 76° W 01:46:09 10° N
BREEZE-M DEB (TANK) 4.4 01:28:23 10° W 01:40:24 45° NNW 01:44:02 10° NE
Cosmos 1151 Rocket 3.3 01:36:51 10° N 01:40:37 62° NNE 01:40:37 62° NNE
CZ-4C R/B 2.8 01:40:01 40° W 01:41:32 51° NW 01:47:28 10° NNE
Timation 2 Rocket 4.3 01:40:49 48° SW 01:42:46 69° WNW 01:49:35 10° NNE
In-Cosmos 22 4.2 01:44:27 62° WSW 01:45:00 66° WNW 01:50:38 10° N
Cosmos 2369 3.8 01:40:42 10° NNW 01:46:12 58° WSW 01:46:12 58° WSW
Cosmos 2058 4.3 01:47:11 31° E 01:47:11 31° E 01:50:40 10° NNE
Cosmos 2151 3.5 01:48:55 54° ENE 01:48:55 54° ENE 01:52:39 10° NNE
Genesis I 4.0 01:50:57 10° NNW 01:53:58 49° NNW 01:53:58 49° NNW
Lacrosse 5 rocket 4.2 01:53:33 10° NNW 01:56:39 19° NNE 01:59:49 10° ENE
Cosmos 1500 Rocket 4.3 01:58:11 43° WNW 01:58:11 43° WNW 02:01:54 10° N
Sich 1 4.3 02:01:33 31° E 02:01:54 31° E 02:05:49 10° NNE
Cosmos 405 4.0 02:02:01 10° N 02:04:46 46° NNE 02:04:46 46° NNE
Cosmos 836 Rocket 4.4 02:01:03 10° NNW 02:06:15 70° WSW 02:06:23 70° WSW
Cosmos 1908 4.3 02:02:58 10° NNW 02:05:38 39° NW 02:05:38 39° NW
PSLV R/B 4.1 02:04:13 10° NNE 02:08:43 52° E 02:08:55 52° ESE
ASTEX 1 3.2 02:05:27 10° N 02:10:27 90° E 02:10:51 76° S
Cosmos 1980 Rocket 2.7 02:06:30 10° NNW 02:12:03 57° ENE 02:14:53 29° SE
Cosmos 1437 Rocket 3.6 02:14:04 10° NNW 02:17:00 43° NW 02:17:00 43° NW
BREEZE-M DEB (TANK) 4.2 02:18:51 19° E 02:18:51 19° E 02:21:21 10° ENE
Meteor 2-11 Rocket 4.3 02:16:18 10° N 02:22:29 84° W 02:24:12 51° S
ISS -0.3 02:21:49 10° NNW 02:24:05 17° N 02:26:20 10° NE
Cosmos 1300 3.0 02:20:41 10° N 02:24:16 65° NE 02:24:16 65° NE
ERS-2 3.1 02:21:49 10° NNE 02:25:09 40° E 02:25:09 40° E
Cosmos 1441 Rocket 4.3 02:25:52 36° WNW 02:25:52 36° WNW 02:29:08 10° N
NPP 4.4 02:21:45 10° NNE 02:26:55 44° E 02:28:32 35° SE
Cosmos 2082 Rocket 2.8 02:28:50 37° W 02:30:22 45° WNW 02:35:50 10° NNE
SL-08 R/B 4.4 02:29:29 48° S 02:31:21 84° E 02:37:29 10° N
Cosmos 1697 Rocket 2.7 02:27:29 10° NNW 02:33:05 61° WSW 02:33:56 54° SSW
Cosmos 332 Rocket 3.7 02:34:31 10° NNW 02:39:21 81° ENE 02:40:39 49° SSE
Cosmos 1833 Rocket 3.3 02:40:04 37° WSW 02:41:43 47° WNW 02:47:11 10° NNE
Cosmos 540 Rocket 3.4 02:37:14 10° NNW 02:42:23 68° WSW 02:43:17 56° SSW
Cosmos 2242 Rocket 3.6 02:38:42 10° N 02:43:08 76° E 02:43:56 57° SSE
SL-08 R/B 3.6 02:42:53 34° SE 02:44:52 65° ENE 02:49:44 10° N
Meteor 1-4 Rocket 4.1 02:44:07 10° N 02:47:34 33° ENE 02:49:06 24° ESE
USA 215 3.2 02:41:14 10° NE 02:47:49 82° SE 02:50:37 38° SW
Cosmos 1805 Rocket 3.9 02:48:17 48° W 02:48:35 49° WNW 02:52:54 10° N
Aureole 1 Rocket 3.8 02:44:30 10° NNW 02:49:00 49° WSW 02:49:39 46° SW
JB-3 4.2 02:45:31 10° N 02:49:31 72° WNW 02:49:42 71° W
Cosmos 1455 3.8 02:48:30 10° NNE 02:51:55 31° ENE 02:53:43 20° ESE
ATLAS 5 CENTAUR R/B 3.9 02:50:42 14° SE 02:52:30 17° ESE 02:55:41 10° ENE
Cosmos 2360 4.2 02:48:07 10° NNW 02:53:52 86° ENE 02:57:25 24° SSE
CZ-2C R/B 4.5 02:55:22 24° W 02:55:34 24° W 03:00:02 10° NW
Cosmos 1633 Rocket 3.1 02:56:59 57° SW 02:57:37 66° W 03:02:02 10° N
Meteor 1-27 4.4 02:52:42 10° NNW 02:58:27 59° W 03:00:16 41° SSW
Cosmos 1726 2.3 02:56:19 10° NNW 02:59:41 55° WNW 02:59:41 55° WNW
IRS-1C 4.4 02:55:19 10° NNE 03:00:37 60° ESE 03:02:57 32° SSE
Cosmos 1707 Rocket 4.2 02:58:10 10° NNW 03:02:12 37° W 03:02:12 37° W
Cosmos 1666 Rocket 4.0 03:04:59 41° W 03:05:28 43° WNW 03:09:37 10° N
Lacrosse 5 1.7 03:00:59 10° NW 03:06:00 65° SW 03:09:23 20° SSE
SL-14 R/B 3.6 03:07:00 46° W 03:07:09 46° WNW 03:10:52 10° N
Cosmos 1869 4.4 03:04:23 10° N 03:08:10 41° ENE 03:10:30 20° SE
Cosmos 1437 4.2 03:11:33 28° WNW 03:11:33 28° WNW 03:14:11 10° NNW
SL-16 R/B 2.5 03:06:41 10° NNW 03:12:21 67° ENE 03:17:58 10° SSE
IRS-P3 4.3 03:09:34 10° N 03:14:48 59° WNW 03:16:50 36° SW
SL-16 R/B 3.5 03:09:42 10° SE 03:15:36 46° ENE 03:21:33 10° N
Cosmos 1470 Rocket 3.5 03:14:30 44° SSW 03:15:53 86° W 03:20:20 10° N
Cosmos 2292 Rocket 4.0 03:17:09 28° SE 03:18:02 35° E 03:21:11 10° NNE
Resurs 1-4 Rocket 3.6 03:13:38 10° NNE 03:18:20 31° E 03:22:45 11° SSE
Cosmos 1703 3.4 03:19:12 49° SW 03:19:54 59° W 03:23:51 10° N
Cosmos 1626 2.4 03:18:58 40° SSE 03:20:06 63° E 03:23:50 10° NNE
Cosmos 1933 Rocket 3.5 03:19:13 43° SSW 03:20:36 79° W 03:25:00 10° N
Cosmos 968 Rocket 3.5 03:19:06 38° SW 03:21:01 68° WNW 03:26:10 10° NNE
Cosmos 2322 Rocket 2.1 03:19:49 10° NNW 03:25:29 90° ENE 03:31:06 10° SSE
CENTAUR R/B 3.2 03:24:34 23° WSW 03:28:19 47° NW 03:35:02 10° NNE
Cosmos 371 Rocket 3.5 03:26:41 10° NNW 03:31:21 48° WSW 03:33:07 32° SSW
Cosmos 1933 4.5 03:29:07 10° N 03:32:57 41° ENE 03:36:46 10° SSE
Nadezhda 1 Rocket 4.4 03:27:27 10° NNW 03:33:10 42° W 03:35:51 27° SW
Cosmos 1271 Rocket 2.6 03:29:34 10° NNW 03:33:20 62° W 03:34:24 41° SSW
EO 1 Del DPAF 3.8 03:30:50 15° SSE 03:33:59 60° ENE 03:37:51 10° N
USA 161 1.6 03:34:43 48° NNW 03:34:43 48° NNW 03:36:34 10° NNW
Spot 4 Rocket 4.0 03:30:31 10° NNE 03:35:42 90° WNW 03:38:40 26° SSW
CZ-3 Stage 3 3.9 03:24:04 10° WSW 03:36:15 31° SSW 03:39:58 10° SE
Lacrosse 5 rocket 1.7 03:32:09 10° NW 03:36:33 76° NE 03:41:06 10° SE
Cosmos 1538 Rocket 4.4 03:31:50 10° NNW 03:36:47 44° WSW 03:39:04 28° SSW
Cosmos 1709 Rocket 4.0 03:33:47 25° SSW 03:37:44 77° W 03:44:02 10° N
Cosmos 923 Rocket 4.0 03:35:13 10° NNW 03:40:31 90° ENE 03:45:45 10° SSE
Cosmos 1346 4.0 03:39:39 27° SSE 03:40:56 46° E 03:43:54 10° NNE
Okean O Rocket 3.6 03:44:04 10° NE 03:47:40 24° E 03:51:14 10° SSE
Cosmos 304 Rocket 4.1 03:43:10 10° NNW 03:48:00 68° ENE 03:52:48 10° SSE
H-2A R/B 3.4 03:45:25 24° SW 03:48:45 44° SSE 04:13:29 10° ESE
Cosmos 1680 Rocket 3.5 03:45:04 10° NNW 03:50:18 85° ENE 03:55:31 10° SSE
Cosmos 1777 Rocket 4.3 03:50:55 25° SW 03:53:56 57° WNW 03:59:10 10° NNE
Cosmos 1862 Rocket 4.2 03:51:00 10° NNW 03:55:11 39° W 03:57:14 25° SW
Cosmos 1980 Rocket 3.5 03:51:33 10° NW 03:55:34 20° W 03:56:36 19° WSW
Cosmos 2360 Rocket 2.8 03:51:17 10° NNW 03:56:52 60° ENE 04:02:25 10° SE
ERS-2 4.3 03:56:46 10° NNW 03:58:49 14° WNW 04:00:00 13° W
Cosmos 773 Rocket 4.2 03:56:03 10° NNW 04:00:58 47° WSW 04:05:19 13° S
ISS -2.4 03:57:54 10° NW 04:01:06 50° NNE 04:04:16 10° ESE
CZ-2D R/B 2.2 03:56:35 10° NNE 04:01:51 76° ESE 04:06:38 13° S
ADEOS 4.2 03:59:13 10° N 04:04:05 42° WNW 04:07:24 19° SW
IRS-1D 3.6 04:01:21 10° N 04:06:43 77° WNW 04:11:04 16° SSW
ARIANE 5 R/B 2.5 04:01:42 10° N 04:06:47 68° WNW 04:10:38 17° SSW
Cosmos 2221 Rocket 3.5 04:03:39 10° N 04:08:10 79° W 04:12:41 10° S
Cosmos 2219 4.2 04:04:09 10° S 04:09:31 43° ESE 04:14:55 10° NE
Cosmos 2322 4.0 04:03:52 10° NNW 04:09:37 74° ENE 04:15:20 10° SSE
CZ-2C R/B 4.3 04:11:23 10° SSE 04:15:46 60° ENE 04:20:17 10° N
UNK 3.7 04:12:13 10° S 04:16:45 62° W 04:21:18 10° NNW
GPS 2-05 Rocket1 4.1 04:16:20 19° SSW 04:17:33 24° S 04:20:23 10° ESE
MTI 3.9 04:15:00 11° S 04:18:14 63° W 04:21:35 10° NNW
Cosmos 1869 Rocket 3.6 04:17:20 14° SSW 04:21:05 69° W 04:25:30 10° N
Cosmos 1898 Rocket 4.1 04:16:30 10° S 04:21:33 55° ESE 04:26:36 10° NNE
Meteor 1-4 Rocket 4.5 04:20:12 10° NW 04:22:28 16° W 04:23:27 14° WSW
OAO 3 Rocket 3.8 04:23:54 15° WSW 04:27:13 35° S 04:31:31 10° ESE
Cosmos 1455 3.9 04:24:57 10° NW 04:27:22 16° W 04:28:44 14° WSW
USA 215 4.3 04:24:31 10° NE 04:30:26 38° NNW 04:36:21 10° W
Cosmos 1937 Rocket 4.4 04:26:14 10° S 04:31:20 48° ESE 04:36:25 10° NNE
Cosmos 2150 Rocket 4.2 04:28:09 10° SSW 04:33:24 75° ESE 04:38:47 10° NNE
ATLAS 5 CENTAUR R/B 2.1 04:32:15 13° SW 04:36:32 64° NW 04:41:47 10° NNE
COSMOS 2428 3.3 04:33:18 10° NNW 04:38:57 64° ENE 04:44:35 10° SE
Cosmos 1833 4.4 04:34:33 12° SW 04:39:56 61° WNW 04:45:38 10° NNE
ADEOS II 4.5 04:37:03 10° NE 04:41:02 21° E 04:44:58 10° SE
UNKNOWN OBJECT B 3.2 04:40:23 10° N 04:44:01 45° WNW 04:47:43 10° SSW
Nadezhda 3 Rocket 4.2 04:40:22 10° N 04:46:33 79° E 04:52:42 10° S
Cosmos 1892 3.4 04:44:07 10° S 04:47:56 56° E 04:51:44 10° NNE
Cosmos 2154 Rocket 4.2 04:42:55 10° S 04:49:14 83° E 04:55:38 10° N
GENESIS II 4.4 04:46:13 10° NW 04:50:14 52° WSW 04:54:09 10° SSE
Coronas F rocket 4.1 04:48:16 10° SE 04:50:19 19° E 04:52:22 10° NE
CZ-2D R/B 3.6 04:46:14 10° N 04:50:22 57° WNW 04:54:21 10° SSW
BREEZE-M TANK 2.6 04:50:32 10° WNW 04:53:27 46° N 04:55:57 10° E
ATLAS CENTAUR R/B 1.9 04:49:52 10° NNW 04:54:36 73° NE 04:58:54 10° SE
Cosmos 1733 Rocket 3.3 04:50:57 10° S 04:55:14 74° E 04:59:37 10° NNE
SL-16 R/B 3.6 04:52:14 10° WNW 04:55:50 17° W 04:59:25 10° SW
Resurs 1-4 Rocket 3.0 04:53:24 10° N 04:58:10 34° WNW 05:02:54 10° SW
SL-16 R/B 3.4 04:54:01 10° SSW 04:59:23 30° W 05:04:47 10° NW
Meteor 2-3 Rocket 3.9 04:54:39 10° SSW 05:00:23 68° WNW 05:06:11 10° N
Cosmos 2237 4.2 04:55:40 10° NNW 05:01:26 83° WSW 05:07:09 10° SSE
Cosmos 2237 Rocket 4.3 04:56:19 10° N 05:01:28 34° ENE 05:06:36 10° ESE
CZ-4B R/B 2.9 05:00:50 10° N 05:04:50 84° WNW 05:09:02 10° SSW
